| time (UTC) | temp F | wind direction | speed knots | gust knots | rain 1hr in | rain 24hr in | rain mn in | humidity % | barometer mb |
| 20260504140513 | 85 | 126 | 6.1 | 14.8 | 0.00 | 0.00 | 0.00 | 68 | 1012.6 |
| 20260504140112 | 84 | 130 | 8.7 | 15.6 | 0.00 | 0.00 | 0.00 | 68 | 1012.8 |
| 20260504130222 | 85 | 125 | 7.0 | 12.2 | 0.00 | 0.00 | 0.00 | 70 | 1012.3 |
| 20260504120156 | 86 | 108 | 6.1 | 11.3 | 0.00 | 0.00 | 0.00 | 69 | 1012.1 |
| 20260504100106 | 88 | 116 | 7.0 | 13.0 | 0.00 | 0.00 | 0.00 | 63 | 1010.8 |
| 20260504090124 | 90 | 113 | 7.0 | 13.9 | 0.00 | 0.00 | 0.00 | 63 | 1010.2 |
| 20260504081603 | 92 | 121 | 7.8 | 16.5 | 0.00 | 0.00 | 0.00 | 58 | 1010.4 |
| 20260504081545 | 93 | 114 | 7.0 | 15.6 | 0.00 | 0.00 | 0.00 | 58 | 1010.4 |
| 20260504080515 | 93 | 98 | 7.8 | 16.5 | 0.00 | 0.00 | 0.00 | 57 | 1010.4 |
| 20260504060105 | 93 | 106 | 10.4 | 18.2 | 0.00 | 0.00 | 0.00 | 54 | 1011.5 |
| 20260504050004 | 93 | 154 | 9.6 | 15.6 | 0.00 | 0.00 | 0.00 | 56 | 1012.4 |
| 20260504044606 | 92 | 154 | 8.7 | 16.5 | 0.00 | 0.00 | 0.00 | 56 | 1012.7 |
| 20260504043709 | 93 | 123 | 7.0 | 14.8 | 0.00 | 0.00 | 0.00 | 56 | 1012.8 |
| 20260504043004 | 92 | 96 | 7.8 | 13.9 | 0.00 | 0.00 | 0.00 | 55 | 1012.9 |
| 20260504042637 | 93 | 113 | 7.0 | 13.0 | 0.00 | 0.00 | 0.00 | 56 | 1012.8 |
| 20260504041642 | 93 | 122 | 6.1 | 13.0 | 0.00 | 0.00 | 0.00 | 55 | 1013.3 |
| 20260504041503 | 92 | 119 | 7.8 | 13.9 | 0.00 | 0.00 | 0.00 | 56 | 1013.2 |
| 20260504040650 | 92 | 117 | 5.2 | 13.0 | 0.00 | 0.00 | 0.00 | 58 | 1013.3 |
| 20260504040107 | 91 | 118 | 7.0 | 13.9 | 0.00 | 0.00 | 0.00 | 58 | 1013.6 |
| 20260504035629 | 91 | 124 | 5.2 | 10.4 | 0.00 | 0.00 | 0.00 | 60 | 1013.6 |
| 20260504034623 | 90 | 127 | 6.1 | 10.4 | 0.00 | 0.00 | 0.00 | 62 | 1013.7 |
| 20260504034503 | 90 | 122 | 7.0 | 11.3 | 0.00 | 0.00 | 0.00 | 62 | 1013.9 |
| 20260504033116 | 91 | 106 | 7.0 | 10.4 | 0.00 | 0.00 | 0.00 | 60 | 1013.9 |
| 20260504032443 | 92 | 106 | 4.3 | 11.3 | 0.00 | 0.00 | 0.00 | 60 | 1013.9 |
| 20260504031603 | 91 | 109 | 5.2 | 12.2 | 0.00 | 0.00 | 0.00 | 60 | 1013.9 |
| 20260504031430 | 92 | 109 | 4.3 | 11.3 | 0.00 | 0.00 | 0.00 | 61 | 1013.9 |
| 20260504030430 | 91 | 122 | 5.2 | 11.3 | 0.00 | 0.00 | 0.00 | 61 | 1014.1 |
| 20260504030003 | 91 | 131 | 5.2 | 12.2 | 0.00 | 0.00 | 0.00 | 61 | 1014.2 |
| 20260504025417 | 90 | 105 | 6.1 | 11.3 | 0.00 | 0.00 | 0.00 | 63 | 1014.2 |
| 20260504024607 | 90 | 113 | 7.8 | 12.2 | 0.00 | 0.00 | 0.00 | 63 | 1014.4 |
| 20260504023226 | 90 | 112 | 6.1 | 11.3 | 0.00 | 0.00 | 0.00 | 63 | 1014.4 |
| 20260504022218 | 90 | 114 | 6.1 | 11.3 | 0.00 | 0.00 | 0.00 | 63 | 1014.4 |
| 20260504021504 | 89 | 115 | 7.0 | 12.2 | 0.00 | 0.00 | 0.00 | 64 | 1014.5 |
| 20260504021227 | 89 | 114 | 6.1 | 11.3 | 0.00 | 0.00 | 0.00 | 65 | 1014.5 |
| 20260504020226 | 89 | 126 | 5.2 | 10.4 | 0.00 | 0.00 | 0.00 | 66 | 1014.6 |
| 20260504020104 | 88 | 123 | 6.1 | 11.3 | 0.00 | 0.00 | 0.00 | 66 | 1014.7 |
| 20260504015221 | 88 | 122 | 6.1 | 11.3 | 0.00 | 0.00 | 0.00 | 65 | 1014.8 |
| 20260504014505 | 88 | 115 | 4.3 | 12.2 | 0.00 | 0.00 | 0.00 | 66 | 1014.8 |
| 20260504014147 | 89 | 116 | 5.2 | 11.3 | 0.00 | 0.00 | 0.00 | 64 | 1014.8 |
| 20260504013134 | 88 | 115 | 6.1 | 10.4 | 0.00 | 0.00 | 0.00 | 66 | 1014.7 |
| 20260504013106 | 87 | 114 | 5.2 | 11.3 | 0.00 | 0.00 | 0.00 | 66 | 1014.7 |
| 20260504011602 | 87 | 115 | 7.8 | 13.0 | 0.00 | 0.00 | 0.00 | 67 | 1014.8 |
| 20260504011055 | 87 | 92 | 4.3 | 12.2 | 0.00 | 0.00 | 0.00 | 69 | 1014.7 |
| 20260504010114 | 86 | 111 | 4.3 | 10.4 | 0.00 | 0.00 | 0.00 | 71 | 1014.6 |
| 20260504010112 | 86 | 112 | 6.1 | 11.3 | 0.00 | 0.00 | 0.00 | 71 | 1014.6 |
| 20260504005052 | 83 | 111 | 2.6 | 7.0 | 0.00 | 0.00 | 0.00 | 77 | 1014.7 |
| 20260504004505 | 82 | 113 | 3.5 | 7.0 | 0.00 | 0.00 | 0.00 | 80 | 1014.8 |
| 20260504004058 | 82 | 114 | 3.5 | 7.8 | 0.00 | 0.00 | 0.00 | 80 | 1014.8 |
| 20260504003121 | 82 | 125 | 5.2 | 9.6 | 0.00 | 0.00 | 0.00 | 81 | 1014.7 |
| 20260504003106 | 81 | 125 | 6.1 | 8.7 | 0.00 | 0.00 | 0.00 | 81 | 1014.9 |
| 20260504002140 | 82 | 125 | 5.2 | 10.4 | 0.00 | 0.00 | 0.00 | 80 | 1014.6 |
| 20260504001615 | 82 | 121 | 6.1 | 11.3 | 0.00 | 0.00 | 0.00 | 78 | 1014.6 |
| 20260504001131 | 83 | 116 | 6.1 | 11.3 | 0.00 | 0.00 | 0.00 | 77 | 1014.5 |
| 20260504000107 | 84 | 107 | 6.1 | 12.2 | 0.00 | 0.00 | 0.00 | 74 | 1014.2 |
| 20260504000002 | 83 | 103 | 7.0 | 12.2 | 0.00 | 0.00 | 0.00 | 74 | 1014.3 |
| 20260503235102 | 84 | 114 | 5.2 | 12.2 | 0.00 | 0.00 | 0.00 | 73 | 1014.0 |
| 20260503234603 | 83 | 121 | 6.1 | 13.0 | 0.00 | 0.00 | 0.00 | 74 | 1014.0 |
| 20260503234031 | 84 | 105 | 2.6 | 8.7 | 0.00 | 0.00 | 0.00 | 73 | 1013.9 |
| 20260503233002 | 84 | 105 | 4.3 | 8.7 | 0.00 | 0.00 | 0.00 | 72 | 1013.9 |
| 20260503231848 | 84 | 102 | 2.6 | 7.0 | 0.00 | 0.00 | 0.00 | 70 | 1013.6 |
| 20260503231502 | 83 | 103 | 4.3 | 8.7 | 0.00 | 0.00 | 0.00 | 70 | 1013.6 |
| 20260503230852 | 83 | 98 | 0.9 | 5.2 | 0.00 | 0.00 | 0.00 | 72 | 1013.4 |
| 20260503224504 | 82 | 98 | 1.7 | 3.5 | 0.00 | 0.00 | 0.00 | 73 | 1013.4 |
| 20260503223646 | 82 | 98 | 0.9 | 3.5 | 0.00 | 0.00 | 0.00 | 72 | 1013.2 |
| 20260503223102 | 81 | 98 | 2.6 | 4.3 | 0.00 | 0.00 | 0.00 | 72 | 1013.1 |
| 20260503221603 | 81 | 98 | 0.0 | 3.5 | 0.00 | 0.00 | 0.00 | 73 | 1013.0 |
| 20260503221505 | 81 | 98 | 0.0 | 3.5 | 0.00 | 0.00 | 0.00 | 73 | 1013.0 |
| 20260503220528 | 81 | 98 | 0.0 | 3.5 | 0.00 | 0.00 | 0.00 | 73 | 1012.9 |
| 20260503220006 | 81 | 98 | 0.9 | 4.3 | 0.00 | 0.00 | 0.00 | 74 | 1013.0 |
| 20260503215549 | 81 | 98 | 0.9 | 3.5 | 0.00 | 0.00 | 0.00 | 74 | 1013.0 |
| 20260503214602 | 81 | 98 | 0.0 | 4.3 | 0.00 | 0.00 | 0.00 | 74 | 1012.9 |
| 20260503214556 | 81 | 98 | 0.0 | 4.3 | 0.00 | 0.00 | 0.00 | 74 | 1012.9 |
| 20260503213601 | 81 | 98 | 0.9 | 4.3 | 0.00 | 0.00 | 0.00 | 74 | 1012.9 |
| 20260503213008 | 81 | 98 | 0.0 | 3.5 | 0.00 | 0.00 | 0.00 | 74 | 1013.0 |
| 20260503211507 | 81 | 98 | 1.7 | 3.5 | 0.00 | 0.00 | 0.00 | 74 | 1013.1 |
| 20260503211439 | 81 | 98 | 0.0 | 2.6 | 0.00 | 0.00 | 0.00 | 74 | 1013.0 |
| 20260503210455 | 81 | 98 | 0.0 | 0.0 | 0.00 | 0.00 | 0.00 | 73 | 1013.1 |
| 20260503204504 | 81 | 98 | 0.9 | 4.3 | 0.00 | 0.00 | 0.00 | 73 | 1012.8 |
| 20260503204255 | 82 | 98 | 0.9 | 3.5 | 0.00 | 0.00 | 0.00 | 73 | 1012.7 |
| 20260503203232 | 82 | 98 | 0.0 | 3.5 | 0.00 | 0.00 | 0.00 | 74 | 1012.6 |
| 20260503203102 | 81 | 98 | 0.0 | 4.3 | 0.00 | 0.00 | 0.00 | 74 | 1012.7 |
| 20260503201603 | 82 | 98 | 1.7 | 5.2 | 0.00 | 0.00 | 0.00 | 72 | 1012.6 |
| 20260503201111 | 82 | 98 | 0.9 | 5.2 | 0.00 | 0.00 | 0.00 | 72 | 1012.5 |
| 20260503200108 | 82 | 98 | 1.7 | 5.2 | 0.00 | 0.00 | 0.00 | 72 | 1012.5 |
| 20260503200002 | 82 | 98 | 0.9 | 6.1 | 0.00 | 0.00 | 0.00 | 72 | 1012.6 |
| 20260503195116 | 82 | 98 | 1.7 | 7.0 | 0.00 | 0.00 | 0.00 | 72 | 1012.4 |
| 20260503194604 | 82 | 98 | 1.7 | 4.3 | 0.00 | 0.00 | 0.00 | 72 | 1012.5 |
| 20260503193010 | 82 | 98 | 3.5 | 6.1 | 0.00 | 0.00 | 0.00 | 73 | 1012.2 |
| 20260503193003 | 82 | 98 | 3.5 | 7.0 | 0.00 | 0.00 | 0.00 | 73 | 1012.3 |
| 20260503192008 | 83 | 96 | 2.6 | 8.7 | 0.00 | 0.00 | 0.00 | 73 | 1012.1 |
| 20260503191502 | 82 | 96 | 3.5 | 7.0 | 0.00 | 0.00 | 0.00 | 73 | 1012.1 |
| 20260503184642 | 83 | 104 | 4.3 | 9.6 | 0.00 | 0.00 | 0.00 | 73 | 1012.1 |
| 20260503184503 | 82 | 106 | 2.6 | 9.6 | 0.00 | 0.00 | 0.00 | 73 | 1012.2 |
| 20260503183632 | 83 | 110 | 6.1 | 9.6 | 0.00 | 0.00 | 0.00 | 73 | 1012.1 |
| 20260503183114 | 82 | 109 | 6.1 | 10.4 | 0.00 | 0.00 | 0.00 | 73 | 1012.1 |
| 20260503182621 | 83 | 107 | 6.1 | 10.4 | 0.00 | 0.00 | 0.00 | 73 | 1012.0 |
| 20260503181638 | 83 | 109 | 6.1 | 10.4 | 0.00 | 0.00 | 0.00 | 73 | 1012.0 |
| 20260503181624 | 82 | 110 | 7.0 | 11.3 | 0.00 | 0.00 | 0.00 | 73 | 1012.1 |
| 20260503180633 | 83 | 107 | 6.1 | 10.4 | 0.00 | 0.00 | 0.00 | 73 | 1012.1 |
| 20260503175622 | 83 | 111 | 5.2 | 12.2 | 0.00 | 0.00 | 0.00 | 73 | 1012.1 |
| 20260503174623 | 83 | 104 | 6.1 | 12.2 | 0.00 | 0.00 | 0.00 | 73 | 1012.1 |
| 20260503174602 | 83 | 103 | 6.1 | 13.0 | 0.00 | 0.00 | 0.00 | 73 | 1012.2 |
| 20260503173603 | 83 | 101 | 5.2 | 11.3 | 0.00 | 0.00 | 0.00 | 74 | 1012.1 |
| 20260503173009 | 82 | 100 | 6.1 | 11.3 | 0.00 | 0.00 | 0.00 | 74 | 1012.2 |
| 20260503172554 | 83 | 120 | 6.1 | 10.4 | 0.00 | 0.00 | 0.00 | 73 | 1012.1 |
| 20260503171529 | 83 | 104 | 7.0 | 13.0 | 0.00 | 0.00 | 0.00 | 74 | 1012.2 |
| 20260503171503 | 82 | 103 | 6.1 | 13.9 | 0.00 | 0.00 | 0.00 | 74 | 1012.3 |
| 20260503170455 | 83 | 115 | 8.7 | 14.8 | 0.00 | 0.00 | 0.00 | 74 | 1012.2 |
| 20260503170105 | 82 | 119 | 9.6 | 15.6 | 0.00 | 0.00 | 0.00 | 74 | 1012.2 |